Location: Bornum
(52.2595°N, 10.7529°E)
Time: 09:44:30
(UTC+00:00)

Daily predictions for brighter satellites

Satellite Brightness Start Highest point End
(mag) Time Altitude Azimuth Time Altitude Azimuth Time Altitude Azimuth
Cosmos 2100 Rocket 4.5 19:35:20 10° SSW 19:41:35 69° WNW 19:47:55 10° N
NOSS 3-4 (A) 4.1 19:36:23 10° NW 19:42:42 60° NE 19:50:10 10° ESE
SL-16 R/B 2.5 19:37:18 10° NNW 19:42:56 59° NE 19:48:31 10° SE
Meteor 1-27 4.2 19:37:19 10° S 19:42:57 79° E 19:48:32 10° NNE
NOSS 3-4 (C) 4.1 19:37:00 10° NW 19:43:20 60° NE 19:50:49 10° ESE
Okean 1 Rocket 4.4 19:45:18 10° SSW 19:49:31 44° WNW 19:53:48 10° N
Cosmos 1544 Rocket 4.3 19:46:49 10° SSE 19:50:42 33° E 19:54:35 10° NNE
Cosmos 2233 Rocket 4.0 19:45:52 10° S 19:52:00 70° E 19:58:08 10° NNE
ATLAS 2AS CENTAUR R/B 4.0 19:46:26 10° W 19:53:01 45° NNW 19:59:30 10° NE
SKYMED 3 4.3 19:52:32 10° NNE 19:56:31 86° ESE 20:00:29 10° SSW
CZ-2C R/B 4.0 19:55:59 10° ESE 19:57:52 17° ENE 19:59:44 10° NNE
Cosmos 1980 Rocket 3.7 19:53:11 10° NW 19:58:13 33° WSW 20:03:12 10° SSW
COSMOS 2406 3.6 19:53:49 10° S 19:59:13 44° ESE 20:04:39 10° NE
Okean-O 2.6 19:56:01 10° SSE 20:00:24 88° ENE 20:04:49 10° NNW
Cosmos 1782 2.8 19:57:08 10° SSW 20:00:38 71° WNW 20:04:11 10° N
CZ-4 R/B 3.4 19:58:04 10° SSW 20:01:01 23° W 20:03:58 10° NW
Ariane Rocket 3.6 19:58:15 10° SE 20:03:03 44° ENE 20:07:51 10° N
Meteor 1-20 Rocket 4.3 19:58:26 10° N 20:04:00 65° ENE 20:09:39 10° SSE
Cosmos 1758 Rocket 3.6 20:01:30 10° N 20:05:54 70° ENE 20:10:19 10° SSE
Cosmos 1933 4.0 20:02:32 10° SSE 20:05:56 32° E 20:09:22 10° NNE
SPOT 3 Rocket 3.8 20:01:26 10° SSE 20:06:28 59° ENE 20:11:31 10° N
Spot 2 Rocket 3.7 20:03:23 10° S 20:08:24 75° WSW 20:13:29 10° NNW
DNEPR-1 R/B 4.4 20:04:06 10° NW 20:09:24 76° NE 20:15:40 11° SE
Cosmos 1725 Rocket 4.5 20:04:34 10° SSW 20:10:47 67° WNW 20:17:01 10° N
Cosmos 2333 Rocket 2.3 20:05:04 10° NNW 20:10:48 79° ENE 20:16:16 11° SE
ERS-1 Rocket 4.4 20:10:06 10° SSW 20:14:40 35° W 20:19:17 10° NNW
Tsikada Rocket 4.4 20:11:30 10° NNW 20:17:36 66° W 20:23:40 10° S
Cosmos 2360 Rocket 2.4 20:19:03 10° NNW 20:24:43 63° NE 20:29:39 14° SE
USA 245 4.3 20:19:49 10° SSE 20:25:43 86° ENE 20:31:15 10° NNW
Cosmos 1461 2.8 20:23:32 10° SSW 20:27:05 46° SE 20:30:37 10° NE
CZ-4B R/B 3.4 20:25:37 13° SSE 20:29:55 74° ENE 20:34:47 10° NNW
Cosmos 1602 Rocket 3.5 20:25:48 10° N 20:30:08 71° ENE 20:33:49 14° SSE
CZ-4C R/B 3.3 20:26:35 10° W 20:31:01 44° NNW 20:36:47 10° NE
Cosmos 1992 Rocket 4.1 20:26:34 10° SSW 20:31:47 85° WNW 20:37:02 10° NNE
YAOGAN 11 4.2 20:28:45 10° NNE 20:33:12 81° WNW 20:37:39 10° SSW
Cosmos 1777 Rocket 4.1 20:31:43 10° NNW 20:36:59 73° ENE 20:41:09 16° SSE
ISS -3.9 20:34:18 10° W 20:37:39 82° S 20:41:01 10° E
Cosmos 2219 Rocket 2.7 20:32:33 10° NNW 20:38:07 53° NE 20:42:48 14° SE
Meteor 1-25 Rocket 4.2 20:33:02 10° NNW 20:38:45 88° ENE 20:43:46 13° SSE
Cosmos 220 Rocket 4.0 20:36:24 10° S 20:40:20 51° ESE 20:44:20 10° NNE
Cosmos 1437 Rocket 2.4 20:36:57 10° S 20:40:31 82° E 20:44:07 10° NNE
USA 290 3.5 20:39:45 19° SE 20:40:37 22° ESE 20:43:07 10° NE
SL-08 R/B 4.3 20:38:45 10° N 20:43:25 49° WNW 20:47:58 10° SW
Cosmos 1503 Rocket 4.1 20:40:18 10° NNW 20:45:30 68° ENE 20:49:23 18° SE
Cosmos 1626 Rocket 4.5 20:42:14 10° NNW 20:46:24 45° W 20:50:35 10° SSW
DEBRIS 3.7 20:44:04 10° WSW 20:47:26 67° S 20:58:21 10° E
Cosmos 2098 Rocket 3.2 20:44:22 13° S 20:48:25 57° E 20:52:28 10° NNE
Cosmos 1076 Rocket 4.1 20:44:42 10° N 20:48:47 43° ENE 20:51:27 19° SE
NOSS 3-3 (A) 4.0 20:45:02 10° SW 20:50:22 76° NW 20:56:55 10° NE
Terra 4.2 20:49:20 10° SW 20:52:35 18° W 20:55:50 10° NW
RESURS DK-1 4.3 20:50:46 10° NNW 20:53:53 21° NE 20:57:00 10° E
Cosmos 2151 3.7 20:50:28 10° NNW 20:54:26 48° W 20:58:09 11° SSW
Cosmos 2322 Rocket 2.2 20:50:51 10° NNW 20:56:32 79° WSW 21:00:46 18° SSE
Cosmos 1486 Rocket 4.1 20:51:20 10° NNW 20:56:36 74° WSW 21:00:35 18° SSE
IRS-1C Rocket 4.3 20:53:40 14° S 20:58:09 72° WSW 21:03:27 10° NNW
Cosmos 1513 Rocket 4.5 20:51:59 10° S 20:58:12 89° E 21:04:22 10° N
Cosmos 1464 Rocket 4.0 20:53:50 13° S 20:59:20 67° E 21:05:30 10° NNE
Cosmos 1354 Rocket 4.2 20:54:33 10° NNW 20:59:47 63° ENE 21:03:26 20° SE
Cosmos 909 Rocket 4.4 20:54:30 10° SW 21:00:46 71° NW 21:07:28 10° NE
Cosmos 2082 Rocket 3.5 20:56:57 10° WSW 21:02:24 44° NW 21:07:52 10° NNE
USA 306 2.0 21:01:33 10° W 21:04:07 46° N 21:04:50 27° NE
Meteor 2-10 4.3 20:59:07 10° NNW 21:04:53 88° W 21:09:14 18° S
Cosmos 1606 Rocket 3.5 21:03:17 19° S 21:06:20 64° E 21:10:36 10° NNE
Cosmos 1766 3.8 21:08:53 10° N 21:11:52 33° ENE 21:13:02 25° ESE
CZ-4B R/B 3.9 21:09:42 13° SSW 21:12:15 31° W 21:15:23 10° NNW
USA 186 4.4 21:13:07 10° WSW 21:13:48 11° W 21:14:29 10° WNW
Cosmos 2237 Rocket 4.1 21:09:45 10° NNW 21:14:20 24° NE 21:18:53 10° E
Cosmos 1428 Rocket 4.5 21:08:17 10° N 21:14:34 90° ENE 21:19:10 19° S
Cosmos 1726 Rocket 3.5 21:12:34 24° SSE 21:14:48 56° E 21:18:47 10° NNE
Okean O Rocket 3.8 21:13:05 10° SW 21:16:08 19° W 21:19:14 10° NW
Cosmos 1092 Rocket 4.3 21:10:18 10° N 21:16:23 56° ENE 21:20:29 21° SSE
Cosmos 540 Rocket 3.8 21:13:16 20° S 21:16:27 45° ESE 21:21:20 10° NE
Aureole 1 Rocket 4.1 21:12:27 10° NNW 21:17:59 62° ENE 21:22:39 20° SE
Cosmos 1805 3.9 21:17:23 10° NNW 21:20:27 38° W 21:22:21 19° SSW
NOSS 3-3 (C) 4.4 21:16:59 10° WSW 21:22:25 62° NW 21:29:03 10° NE
COSMOS 2428 3.5 21:20:27 10° NNW 21:25:57 45° NE 21:30:13 16° ESE
SL-16 R/B 3.5 21:21:49 10° NW 21:26:42 30° WSW 21:30:55 13° SSW
Okean 1-7 Rocket 4.2 21:23:13 10° NNW 21:27:34 53° W 21:30:35 19° SSW
CZ-2C R/B 3.5 21:27:14 20° SW 21:28:26 28° W 21:30:54 10° NW
Geosat 4.3 21:27:38 10° NE 21:32:27 46° ESE 21:35:08 24° S
NOSS 3-4 (A) 4.3 21:27:14 10° NW 21:33:39 49° SW 21:38:38 21° S
NOSS 3-4 (C) 4.3 21:27:51 10° NW 21:34:18 50° SW 21:39:17 21° S
Cosmos-2242 3.1 21:34:03 30° SSE 21:35:47 53° E 21:39:49 10° NNE
Cosmos 2034 Rocket 4.0 21:32:54 18° S 21:37:46 84° E 21:44:09 10° NNE
Ariane Rocket 4.3 21:38:06 13° SSW 21:42:03 32° W 21:46:36 10° NNW
COSMOS 2406 4.4 21:38:05 10° WSW 21:43:33 44° NW 21:49:03 10° NNE
ATLAS 2AS CENTAUR R/B 4.5 21:39:27 10° WNW 21:45:30 32° N 21:51:28 10° ENE
USA 234 4.3 21:41:31 10° ENE 21:46:23 22° SE 21:47:11 21° SE
TSX-5 3.3 21:46:02 10° NNW 21:49:08 68° NE 21:50:06 41° ESE
Cosmos 2333 Rocket 4.0 21:50:14 10° NW 21:54:29 22° WSW 21:58:17 12° SSW
Helios 1B rocket 1.9 21:55:11 43° SSE 21:56:14 84° ENE 21:59:46 10° NNW
Cosmos 2279 Rocket 4.4 21:53:17 26° SSE 21:56:37 50° E 22:02:38 10° NNE
Cosmos 1470 2.9 21:54:17 10° N 21:57:29 45° ENE 21:58:12 38° ESE
Cosmos 1763 Rocket 3.5 21:53:12 16° SSW 21:57:33 82° WNW 22:02:51 10° NNE
Cosmos 1536 2.5 21:54:19 10° NNW 21:58:01 85° W 21:59:12 41° S
Okean 1 4.1 21:56:18 19° SW 21:58:31 40° WNW 22:01:56 10° N
Cosmos 1898 Rocket 3.6 21:54:06 10° NNW 21:59:17 68° ENE 22:02:03 28° SE
Cosmos 2221 3.5 21:59:07 27° ESE 22:00:13 31° E 22:03:56 10° NNE
Cosmos 1707 1.9 21:59:51 61° SW 22:00:14 77° WNW 22:03:05 10° N
Cosmos 1634 Rocket 4.0 21:57:45 26° S 22:01:26 74° E 22:07:38 10° NNE
CSL-04 DEB 4.0 22:01:35 43° SSE 22:02:40 85° ENE 22:06:20 10° NNW
CZ-2C R/B 4.2 21:58:30 10° NNE 22:02:46 42° E 22:04:14 32° SE
Cosmos 1953 Rocket 4.2 21:58:40 10° NNW 22:02:50 46° W 22:04:56 26° SSW
Cosmos 1833 4.2 21:57:58 13° SSW 22:03:05 86° WNW 22:08:45 10° NNE
Cosmos 2297 Rocket 3.7 22:01:45 18° ESE 22:03:05 19° E 22:06:58 10° ENE
Cosmos 44 3.6 21:59:11 10° NW 22:04:32 61° SW 22:06:56 31° SSE
Cosmos 2360 Rocket 3.6 22:03:34 10° NW 22:08:19 28° WSW 22:11:23 17° SSW
Cosmos 2322 3.7 22:05:01 10° NNW 22:10:46 89° ENE 22:13:46 29° SSE
Meteor 2-6 Rocket 4.4 22:08:15 28° S 22:11:26 67° E 22:17:20 10° NNE
Cosmos 2026 Rocket 4.5 22:08:04 10° NNW 22:14:16 55° W 22:18:17 22° SSW
ISS -3.7 22:11:04 10° W 22:14:19 54° SSW 22:14:19 54° SSW
USA 290 4.0 22:12:10 12° WSW 22:14:37 29° NW 22:17:25 10° N
Cosmos 2058 Rocket 3.1 22:14:25 30° SSW 22:16:28 73° WNW 22:20:49 10° N
GP-B 4.3 22:13:29 10° NNE 22:17:22 30° E 22:18:52 24° ESE
Helios 1A 3.2 22:16:44 10° N 22:20:36 58° WNW 22:22:29 28° SW
CZ-4C R/B 4.4 22:15:59 10° WNW 22:20:39 29° N 22:26:28 10° ENE
SAR-Lupe-2 4.1 22:20:01 37° ESE 22:20:45 44° ENE 22:23:56 10° N
Cosmos 2219 Rocket 3.2 22:16:48 10° NW 22:21:51 34° WSW 22:24:29 23° SSW
Cosmos 2266 Rocket 4.2 22:17:35 10° N 22:23:33 57° ENE 22:26:50 27° SE
Cosmos 1975 2.6 22:20:52 10° N 22:24:33 75° ENE 22:25:24 50° SSE
KORONAS-FOTON 3.7 22:25:06 44° SW 22:25:57 63° WNW 22:29:20 10° N
Cosmos 841 Rocket 3.7 22:28:15 34° SSE 22:30:13 54° ESE 22:35:20 10° NNE
RESURS DK-1 2.3 22:27:40 10° NW 22:31:38 66° WSW 22:32:35 47° S
ARIANE 5 R/B 2.6 22:32:16 39° S 22:33:53 79° WSW 22:38:23 10° NNW
Meteor 1-19 Rocket 4.4 22:32:11 32° SSE 22:34:53 63° E 22:40:46 10° NNE
ALOS 2 2.5 22:33:58 40° SSE 22:35:32 90° W 22:39:58 10° NNW
Cosmos 2322 Rocket 4.3 22:36:26 10° WNW 22:39:40 16° W 22:42:34 11° SW
SL-16 R/B 3.9 22:41:51 10° NNW 22:46:52 30° NE 22:51:51 10° ESE
Cosmos 1271 Rocket 2.7 22:46:13 47° SW 22:46:55 60° WNW 22:50:17 10° N
Cosmos 1842 3.5 22:47:39 38° WSW 22:48:14 43° WNW 22:51:16 10° N
Lacrosse 4 Rocket 3.0 22:51:57 20° ESE 22:51:57 20° ESE 22:54:50 10° ENE
Meteor 2-9 Rocket 4.4 22:48:13 10° NNW 22:53:32 60° W 22:55:56 32° SSW
Cosmos 1766 Rocket 4.2 22:49:32 10° N 22:53:42 46° ENE 22:55:20 31° SE
Spot 4 4.1 22:51:57 35° SSW 22:53:42 55° W 22:58:26 10° NNW
PSLV R/B 3.5 22:50:20 10° NNE 22:54:37 75° ESE 22:55:59 43° S
Cosmos 2237 Rocket 2.2 22:53:31 10° NNW 22:59:15 84° ENE 23:02:17 29° SE
CZ-2C R/B 2.8 22:58:58 29° SE 23:01:37 64° ENE 23:06:46 10° N
BREEZE-M DEB (TANK) 3.9 22:48:37 10° WSW 23:02:12 72° SSE 23:05:47 10° E
Cosmos 1980 3.6 22:57:42 10° NNW 23:03:24 87° WSW 23:06:13 31° SSE
ARGOS Delta rocket 4.1 22:58:53 10° N 23:04:01 78° WNW 23:06:31 32° SSW
Cosmos 858 Rocket 4.4 22:59:30 10° NNW 23:04:41 72° WSW 23:06:42 37° S
Cosmos 1937 Rocket 3.8 23:02:45 10° NNW 23:07:43 50° WSW 23:09:26 35° SSW
COSMOS 2428 3.3 23:04:51 10° NW 23:10:10 41° WSW 23:12:10 31° SSW
NOSS 0 Rocket 4.2 23:06:55 10° NW 23:12:53 52° WSW 23:15:26 32° S
Cosmos 2227 Rocket 3.4 23:11:04 23° SE 23:12:57 28° ESE 23:17:40 10° NE
Meteor 1-11 Rocket 3.9 23:07:44 10° NNW 23:13:21 63° W 23:15:45 34° SSW
Meteor 2-4 Rocket 4.0 23:11:49 31° SSE 23:14:04 52° E 23:19:27 10° NNE
MetOp-A 3.9 23:18:10 38° S 23:19:57 69° WSW 23:24:37 10° NNW
Meteor 1-10 Rocket 4.4 23:17:23 31° SSW 23:20:23 77° WNW 23:26:23 10° N
Cosmos 2263 Rocket 3.7 23:20:54 18° SE 23:22:55 21° ESE 23:27:02 10° NE
Cosmos 1238 Rocket 2.9 23:25:54 47° SSE 23:26:57 72° E 23:31:20 10° NNE
Cosmos 1812 Rocket 4.1 23:25:18 32° SW 23:26:59 51° WNW 23:31:20 10° N
USA 234 3.3 23:23:49 10° ENE 23:30:19 62° SE 23:34:29 23° SW
SeaSat 1 2.6 23:28:37 23° SE 23:31:39 73° NE 23:36:34 10° NNW
CZ-2C R/B 3.3 23:27:09 10° NNE 23:32:56 89° WNW 23:35:48 32° SSW
Cosmos 1758 4.4 23:30:39 10° N 23:33:58 33° ENE 23:35:23 24° ESE
ACS3 Solar Sail 2.6 23:28:34 10° NNE 23:34:10 40° E 23:37:20 23° SSE
Meteor 1-27 Rocket 3.7 23:32:34 33° SSW 23:35:22 86° WNW 23:41:09 10° NNE
Cosmos 2221 3.8 23:35:23 22° WSW 23:37:12 31° WNW 23:40:59 10° N
ATLAS 2AS CENTAUR R/B 3.7 23:31:25 10° NW 23:37:56 46° NNE 23:44:26 10° E
Meteor 2-20 Rocket 4.2 23:37:28 33° S 23:40:11 90° ESE 23:45:56 10° N
BlueWalker 3 3.1 23:41:17 26° ESE 23:41:17 26° ESE 23:43:26 10° E
Cosmos 2297 Rocket 2.2 23:43:29 30° SSW 23:46:23 87° WNW 23:52:05 10° NNE
Cosmos 1125 Rocket 4.2 23:41:14 10° NNW 23:46:26 53° ENE 23:50:47 14° SE
Okean 3 Rocket 3.9 23:42:47 10° N 23:47:17 63° ENE 23:49:21 30° SSE
Landsat 5 3.3 23:46:24 10° NNE 23:50:31 75° ESE 23:51:40 45° S
Cosmos 1340 Rocket 4.0 23:47:41 10° N 23:51:13 34° ENE 23:53:20 20° ESE
Meteor 2-10 Rocket 3.6 23:48:46 10° NNW 23:54:17 81° W 23:57:07 31° S
GP-B 4.2 23:50:28 10° NNW 23:54:25 34° WNW 23:56:01 26° WSW
Cosmos 1842 Rocket 3.5 23:53:33 40° S 23:55:04 78° E 23:59:30 10° NNE
